Hourly Weather Kistutovo

Today, 23 October, Friday

Time Temperature Precipitation Wind Pressure Humidity
00:00 +8°C° 0.9 mm 3 mps 736 mmHg 96%
01:00 +8°C° 0.9 mm 3 mps 736 mmHg 96%
02:00 +9°C° 0 mm 3 mps 736 mmHg 96%
03:00 +8°C° 0.8 mm 4 mps 736 mmHg 92%
04:00 +9°C° 0.8 mm 5 mps 736 mmHg 88%
05:00 +9°C° 0.8 mm 6 mps 736 mmHg 84%
06:00 +9°C° 0 mm 5 mps 736 mmHg 83%
07:00 +9°C° 0 mm 5 mps 736 mmHg 83%
08:00 +9°C° 0 mm 5 mps 736 mmHg 83%
09:00 +9°C° 0 mm 5 mps 737 mmHg 82%
10:00 +10°C° 0 mm 5 mps 737 mmHg 81%
11:00 +10°C° 0 mm 5 mps 737 mmHg 80%
12:00 +11°C° 0 mm 4 mps 737 mmHg 81%
13:00 +11°C° 0 mm 4 mps 737 mmHg 82%
14:00 +11°C° 0 mm 4 mps 737 mmHg 83%
15:00 +7°C° 0.1 mm 3 mps 739 mmHg 83%
16:00 +9°C° 0.1 mm 3 mps 737 mmHg 85%
17:00 +10°C° 0.1 mm 3 mps 736 mmHg 88%
18:00 +10°C° 0.8 mm 4 mps 736 mmHg 88%
19:00 +10°C° 0.8 mm 4 mps 736 mmHg 89%
20:00 +9°C° 0.8 mm 5 mps 736 mmHg 89%
21:00 +10°C° 0.3 mm 4 mps 736 mmHg 88%
22:00 +8°C° 0.3 mm 4 mps 736 mmHg 87%
23:00 +8°C° 0.3 mm 4 mps 736 mmHg 86%

Tomorrow, 24 October, Saturday

Time Temperature Precipitation Wind Pressure Humidity
00:00 +8°C° 0 mm 4 mps 737 mmHg 85%
01:00 +8°C° 0 mm 5 mps 737 mmHg 84%
02:00 +8°C° 0 mm 5 mps 738 mmHg 83%
03:00 +7°C° 0 mm 4 mps 738 mmHg 83%
04:00 +7°C° 0 mm 4 mps 739 mmHg 83%
05:00 +8°C° 0 mm 3 mps 739 mmHg 83%
06:00 +7°C° 0 mm 3 mps 739 mmHg 84%
07:00 +7°C° 0 mm 3 mps 740 mmHg 85%
08:00 +7°C° 0 mm 3 mps 740 mmHg 85%
09:00 +7°C° 0 mm 3 mps 741 mmHg 83%
10:00 +8°C° 0 mm 3 mps 741 mmHg 80%
11:00 +8°C° 0 mm 3 mps 741 mmHg 78%
12:00 +8°C° 0 mm 3 mps 741 mmHg 79%
13:00 +8°C° 0 mm 3 mps 741 mmHg 80%
14:00 +8°C° 0 mm 2 mps 741 mmHg 81%
15:00 +8°C° 0.2 mm 2 mps 741 mmHg 85%
16:00 +8°C° 0.2 mm 2 mps 741 mmHg 89%
17:00 +8°C° 0.2 mm 1 mps 741 mmHg 93%
18:00 +7°C° 0.2 mm 2 mps 741 mmHg 93%
19:00 +7°C° 0.2 mm 2 mps 742 mmHg 93%
20:00 +6°C° 0.2 mm 2 mps 742 mmHg 93%
21:00 +6°C° 0 mm 2 mps 742 mmHg 94%
22:00 +5°C° 0 mm 2 mps 742 mmHg 95%
23:00 +5°C° 0 mm 2 mps 742 mmHg 96%

Day after tomorrow, 25 October, Sunday

Time Temperature Precipitation Wind Pressure Humidity
00:00 +4°C° 0 mm 2 mps 742 mmHg 96%
01:00 +5°C° 0 mm 1 mps 742 mmHg 96%
02:00 +5°C° 0 mm 1 mps 742 mmHg 96%
03:00 +5°C° 0 mm 1 mps 742 mmHg 95%
04:00 +5°C° 0 mm 1 mps 742 mmHg 95%
05:00 +5°C° 0 mm 1 mps 742 mmHg 94%
06:00 +6°C° 0.4 mm 1 mps 743 mmHg 95%
07:00 +6°C° 0.4 mm 1 mps 743 mmHg 95%
08:00 +6°C° 0.4 mm 1 mps 743 mmHg 96%
09:00 +6°C° 0 mm 2 mps 744 mmHg 93%
10:00 +7°C° 0 mm 3 mps 744 mmHg 90%
11:00 +7°C° 0 mm 3 mps 745 mmHg 87%
12:00 +7°C° 0 mm 3 mps 745 mmHg 85%
13:00 +7°C° 0 mm 3 mps 746 mmHg 83%
14:00 +7°C° 0 mm 3 mps 747 mmHg 81%
15:00 +5°C° 0 mm 3 mps 747 mmHg 83%
16:00 +4°C° 0 mm 3 mps 748 mmHg 84%
17:00 +5°C° 0 mm 2 mps 748 mmHg 86%
18:00 +4°C° 0 mm 2 mps 749 mmHg 88%
19:00 +4°C° 0 mm 2 mps 749 mmHg 90%
20:00 +5°C° 0 mm 1 mps 750 mmHg 92%
21:00 +5°C° 0 mm 1 mps 750 mmHg 92%
22:00 +4°C° 0 mm 2 mps 750 mmHg 93%
23:00 +5°C° 0 mm 2 mps 751 mmHg 94%

, 26 October, Monday

Time Temperature Precipitation Wind Pressure Humidity
00:00 +5°C° 0 mm 2 mps 751 mmHg 94%
01:00 +5°C° 0 mm 2 mps 751 mmHg 94%
02:00 +5°C° 0 mm 2 mps 751 mmHg 94%
03:00 +5°C° 0 mm 2 mps 752 mmHg 95%
04:00 +4°C° 0 mm 2 mps 752 mmHg 95%
05:00 +5°C° 0 mm 1 mps 752 mmHg 96%
06:00 +5°C° 0 mm 1 mps 752 mmHg 95%
07:00 +5°C° 0 mm 1 mps 752 mmHg 95%
08:00 +5°C° 0 mm 1 mps 753 mmHg 95%
09:00 +5°C° 0 mm 2 mps 753 mmHg 91%
10:00 +7°C° 0 mm 2 mps 753 mmHg 87%
11:00 +8°C° 0 mm 2 mps 753 mmHg 83%
12:00 +8°C° 0 mm 2 mps 753 mmHg 82%
13:00 +9°C° 0 mm 2 mps 753 mmHg 80%
14:00 +9°C° 0 mm 2 mps 753 mmHg 79%
15:00 +8°C° 0 mm 2 mps 753 mmHg 84%
16:00 +7°C° 0 mm 2 mps 754 mmHg 88%
17:00 +6°C° 0 mm 2 mps 754 mmHg 93%
18:00 +6°C° 0 mm 2 mps 754 mmHg 93%
19:00 +6°C° 0 mm 2 mps 754 mmHg 94%
20:00 +6°C° 0 mm 2 mps 754 mmHg 94%
21:00 +5°C° 0 mm 2 mps 754 mmHg 94%
22:00 +5°C° 0 mm 2 mps 754 mmHg 94%
23:00 +5°C° 0 mm 2 mps 755 mmHg 94%

26 October, Monday

Time Temperature Precipitation Wind Pressure Humidity
00:00 +5°C° 0 mm 2 mps 751 mmHg 94%
01:00 +5°C° 0 mm 2 mps 751 mmHg 94%
02:00 +5°C° 0 mm 2 mps 751 mmHg 94%
03:00 +5°C° 0 mm 2 mps 752 mmHg 95%
04:00 +4°C° 0 mm 2 mps 752 mmHg 95%
05:00 +5°C° 0 mm 1 mps 752 mmHg 96%
06:00 +5°C° 0 mm 1 mps 752 mmHg 95%
07:00 +5°C° 0 mm 1 mps 752 mmHg 95%
08:00 +5°C° 0 mm 1 mps 753 mmHg 95%
09:00 +5°C° 0 mm 2 mps 753 mmHg 91%
10:00 +7°C° 0 mm 2 mps 753 mmHg 87%
11:00 +8°C° 0 mm 2 mps 753 mmHg 83%
12:00 +8°C° 0 mm 2 mps 753 mmHg 82%
13:00 +9°C° 0 mm 2 mps 753 mmHg 80%
14:00 +9°C° 0 mm 2 mps 753 mmHg 79%
15:00 +8°C° 0 mm 2 mps 753 mmHg 84%
16:00 +7°C° 0 mm 2 mps 754 mmHg 88%
17:00 +6°C° 0 mm 2 mps 754 mmHg 93%
18:00 +6°C° 0 mm 2 mps 754 mmHg 93%
19:00 +6°C° 0 mm 2 mps 754 mmHg 94%
20:00 +6°C° 0 mm 2 mps 754 mmHg 94%
21:00 +5°C° 0 mm 2 mps 754 mmHg 94%
22:00 +5°C° 0 mm 2 mps 754 mmHg 94%
23:00 +5°C° 0 mm 2 mps 755 mmHg 94%

27 October, Tuesday

Time Temperature Precipitation Wind Pressure Humidity
00:00 +5°C° 0 mm 2 mps 754 mmHg 94%
01:00 +5°C° 0 mm 2 mps 754 mmHg 94%
02:00 +4°C° 0 mm 2 mps 754 mmHg 94%
03:00 +3°C° 0 mm 3 mps 754 mmHg 94%
04:00 +3°C° 0 mm 3 mps 754 mmHg 94%
05:00 +3°C° 0 mm 3 mps 754 mmHg 94%
06:00 +3°C° 0 mm 3 mps 754 mmHg 93%
07:00 +3°C° 0 mm 3 mps 754 mmHg 93%
08:00 +3°C° 0 mm 3 mps 754 mmHg 92%
09:00 +4°C° 0 mm 3 mps 754 mmHg 89%
10:00 +5°C° 0 mm 3 mps 753 mmHg 86%
11:00 +7°C° 0 mm 3 mps 753 mmHg 83%
12:00 +7°C° 0 mm 3 mps 753 mmHg 83%
13:00 +7°C° 0 mm 3 mps 753 mmHg 82%
14:00 +7°C° 0 mm 4 mps 753 mmHg 81%
15:00 +7°C° 0 mm 3 mps 753 mmHg 83%
16:00 +7°C° 0 mm 3 mps 753 mmHg 84%
17:00 +7°C° 0 mm 3 mps 752 mmHg 85%
18:00 +7°C° 0 mm 3 mps 752 mmHg 85%
19:00 +7°C° 0 mm 3 mps 752 mmHg 85%
20:00 +6°C° 0 mm 4 mps 752 mmHg 85%
21:00 +6°C° 0 mm 4 mps 752 mmHg 85%
22:00 +6°C° 0 mm 4 mps 751 mmHg 86%
23:00 +7°C° 0 mm 3 mps 751 mmHg 86%

28 October, Wednesday

Time Temperature Precipitation Wind Pressure Humidity
00:00 +7°C° 0 mm 3 mps 751 mmHg 86%
01:00 +7°C° 0 mm 3 mps 751 mmHg 87%
02:00 +7°C° 0 mm 3 mps 751 mmHg 87%
03:00 +7°C° 0 mm 3 mps 751 mmHg 87%
04:00 +7°C° 0 mm 3 mps 750 mmHg 88%
05:00 +7°C° 0 mm 3 mps 750 mmHg 88%
06:00 +6°C° 0 mm 4 mps 750 mmHg 89%
07:00 +6°C° 0 mm 4 mps 750 mmHg 89%
08:00 +6°C° 0 mm 4 mps 750 mmHg 89%
09:00 +7°C° 0 mm 4 mps 750 mmHg 87%
10:00 +8°C° 0 mm 4 mps 749 mmHg 84%
11:00 +10°C° 0 mm 4 mps 749 mmHg 82%
12:00 +10°C° 0 mm 4 mps 749 mmHg 82%
13:00 +11°C° 0 mm 4 mps 749 mmHg 82%
14:00 +11°C° 0 mm 4 mps 749 mmHg 82%
15:00 +11°C° 0 mm 3 mps 749 mmHg 85%
16:00 +10°C° 0 mm 3 mps 749 mmHg 88%
17:00 +10°C° 0 mm 3 mps 749 mmHg 90%
18:00 +10°C° 0 mm 3 mps 749 mmHg 91%
19:00 +10°C° 0 mm 2 mps 749 mmHg 91%
20:00 +10°C° 0 mm 2 mps 750 mmHg 92%
21:00 +9°C° 0 mm 2 mps 750 mmHg 93%
22:00 +9°C° 0 mm 2 mps 750 mmHg 95%
23:00 +8°C° 0 mm 2 mps 750 mmHg 96%
Show more